| time (UTC) | temp F | wind direction | speed knots | gust knots | rain 1hr in | rain 24hr in | rain mn in | humidity % | barometer mb |
| 20260505071311 | 64 | 214 | 6.1 | 12.2 | 0.02 | 0.02 | 0.02 | 87 | 1005.9 |
| 20260505070826 | 65 | 219 | 5.2 | 9.6 | 0.01 | 0.01 | 0.01 | 84 | 1006.0 |
| 20260505070303 | 66 | 230 | 3.5 | 9.6 | 0.00 | 0.00 | 0.00 | 80 | 1006.0 |
| 20260505065818 | 67 | 216 | 3.5 | 9.6 | 0.00 | 0.00 | 0.00 | 78 | 1005.8 |
| 20260505065313 | 67 | 214 | 5.2 | 9.6 | 0.00 | 0.00 | 0.00 | 75 | 1006.1 |
| 20260505064809 | 67 | 139 | 2.6 | 7.0 | 0.00 | 0.00 | 0.00 | 74 | 1006.1 |
| 20260505064323 | 67 | 166 | 3.5 | 7.0 | 0.00 | 0.00 | 0.00 | 74 | 1006.1 |
| 20260505063837 | 67 | 179 | 1.7 | 2.6 | 0.00 | 0.00 | 0.00 | 74 | 1005.7 |
| 20260505063310 | 67 | 216 | 0.9 | 2.6 | 0.00 | 0.00 | 0.00 | 75 | 1005.5 |
| 20260505062805 | 66 | 207 | 0.0 | 2.6 | 0.00 | 0.00 | 0.00 | 75 | 1005.3 |
| 20260505062300 | 66 | 152 | 0.9 | 2.6 | 0.00 | 0.00 | 0.00 | 76 | 1005.3 |
| 20260505061759 | 66 | 157 | 0.0 | 2.6 | 0.00 | 0.00 | 0.00 | 76 | 1005.3 |
| 20260505061333 | 66 | 169 | 0.0 | 2.6 | 0.00 | 0.00 | 0.00 | 76 | 1005.3 |
| 20260505060806 | 66 | 242 | 0.9 | 2.6 | 0.00 | 0.00 | 0.00 | 76 | 1005.3 |
| 20260505060300 | 66 | 176 | 0.9 | 2.6 | 0.00 | 0.00 | 0.00 | 76 | 1005.3 |
| 20260505055833 | 66 | 192 | 0.0 | 1.7 | 0.00 | 0.00 | 0.00 | 77 | 1005.3 |
| 20260505055307 | 66 | 177 | 0.0 | 1.7 | 0.00 | 0.00 | 0.00 | 77 | 1005.2 |
| 20260505054802 | 66 | 162 | 0.9 | 1.7 | 0.00 | 0.00 | 0.00 | 76 | 1005.2 |
| 20260505054336 | 66 | 193 | 0.0 | 2.6 | 0.00 | 0.00 | 0.00 | 77 | 1005.3 |
| 20260505053810 | 66 | 162 | 0.0 | 1.7 | 0.00 | 0.00 | 0.00 | 77 | 1005.5 |
| 20260505053309 | 65 | 195 | 0.0 | 1.7 | 0.00 | 0.00 | 0.00 | 77 | 1005.6 |
| 20260505052804 | 65 | 166 | 0.0 | 1.7 | 0.00 | 0.00 | 0.00 | 77 | 1005.8 |
| 20260505052317 | 65 | 217 | 0.0 | 1.7 | 0.00 | 0.00 | 0.00 | 77 | 1005.9 |
| 20260505051812 | 65 | 170 | 0.0 | 1.7 | 0.00 | 0.00 | 0.00 | 77 | 1005.8 |
| 20260505051305 | 65 | 198 | 0.0 | 1.7 | 0.00 | 0.00 | 0.00 | 77 | 1005.5 |
| 20260505050818 | 65 | 135 | 0.0 | 4.3 | 0.00 | 0.00 | 0.00 | 77 | 1005.3 |
| 20260505050333 | 65 | 174 | 0.9 | 6.1 | 0.00 | 0.00 | 0.00 | 76 | 1005.1 |
| 20260505041302 | 66 | 181 | 1.7 | 4.3 | 0.00 | 0.00 | 0.00 | 75 | 1005.5 |
| 20260505040801 | 67 | 178 | 0.9 | 5.2 | 0.00 | 0.00 | 0.00 | 74 | 1005.6 |
| 20260505040316 | 67 | 171 | 2.6 | 6.1 | 0.00 | 0.00 | 0.00 | 73 | 1005.6 |
| 20260505035811 | 67 | 181 | 0.9 | 6.1 | 0.00 | 0.00 | 0.00 | 73 | 1005.6 |
| 20260505035305 | 67 | 158 | 1.7 | 5.2 | 0.00 | 0.00 | 0.00 | 72 | 1005.6 |
| 20260505034759 | 68 | 188 | 0.9 | 5.2 | 0.00 | 0.00 | 0.00 | 72 | 1005.6 |
| 20260505034314 | 68 | 155 | 1.7 | 5.2 | 0.00 | 0.00 | 0.00 | 72 | 1005.7 |
| 20260505033809 | 68 | 190 | 0.9 | 4.3 | 0.00 | 0.00 | 0.00 | 71 | 1005.8 |
| 20260505033304 | 68 | 172 | 0.9 | 5.2 | 0.00 | 0.00 | 0.00 | 71 | 1005.8 |
| 20260505032802 | 68 | 175 | 1.7 | 5.2 | 0.00 | 0.00 | 0.00 | 71 | 1006.0 |
| 20260505032316 | 68 | 262 | 1.7 | 5.2 | 0.00 | 0.00 | 0.00 | 71 | 1005.8 |
| 20260505031810 | 69 | 148 | 0.9 | 5.2 | 0.00 | 0.00 | 0.00 | 70 | 1005.8 |
| 20260505031306 | 69 | 154 | 1.7 | 5.2 | 0.00 | 0.00 | 0.00 | 70 | 1006.0 |
| 20260505030802 | 69 | 188 | 1.7 | 6.1 | 0.00 | 0.00 | 0.00 | 69 | 1005.8 |
| 20260505030338 | 69 | 148 | 1.7 | 7.0 | 0.00 | 0.00 | 0.00 | 69 | 1005.8 |
| 20260505025811 | 69 | 200 | 2.6 | 7.0 | 0.00 | 0.00 | 0.00 | 68 | 1005.8 |
| 20260505025307 | 70 | 207 | 1.7 | 5.2 | 0.00 | 0.00 | 0.00 | 68 | 1006.0 |
| 20260505024802 | 70 | 153 | 0.9 | 5.2 | 0.00 | 0.00 | 0.00 | 67 | 1006.0 |
| 20260505024301 | 70 | 221 | 1.7 | 5.2 | 0.00 | 0.00 | 0.00 | 68 | 1005.8 |
| 20260505023816 | 70 | 208 | 2.6 | 8.7 | 0.00 | 0.00 | 0.00 | 68 | 1005.7 |
| 20260505023311 | 70 | 233 | 2.6 | 8.7 | 0.00 | 0.00 | 0.00 | 69 | 1005.7 |
| 20260505022806 | 70 | 208 | 1.7 | 3.5 | 0.00 | 0.00 | 0.00 | 69 | 1005.8 |
| 20260505022301 | 70 | 222 | 0.9 | 4.3 | 0.00 | 0.00 | 0.00 | 68 | 1005.8 |
| 20260505021815 | 70 | 181 | 1.7 | 4.3 | 0.00 | 0.00 | 0.00 | 68 | 1005.8 |
| 20260505021330 | 70 | 218 | 0.0 | 3.5 | 0.00 | 0.00 | 0.00 | 68 | 1005.8 |
| 20260505020825 | 70 | 212 | 0.9 | 3.5 | 0.00 | 0.00 | 0.00 | 68 | 1005.8 |
| 20260505020318 | 70 | 200 | 0.9 | 6.1 | 0.00 | 0.00 | 0.00 | 68 | 1005.7 |
| 20260505015833 | 70 | 217 | 2.6 | 6.1 | 0.00 | 0.00 | 0.00 | 69 | 1005.7 |
| 20260505015312 | 70 | 221 | 0.9 | 3.5 | 0.00 | 0.00 | 0.00 | 69 | 1005.6 |
| 20260505014806 | 70 | 212 | 0.0 | 2.6 | 0.00 | 0.00 | 0.00 | 69 | 1005.7 |
| 20260505014300 | 71 | 205 | 0.0 | 2.6 | 0.00 | 0.00 | 0.00 | 68 | 1005.7 |
| 20260505013815 | 71 | 225 | 0.0 | 2.6 | 0.00 | 0.00 | 0.00 | 66 | 1005.5 |
| 20260505013310 | 71 | 227 | 0.9 | 4.3 | 0.00 | 0.00 | 0.00 | 66 | 1005.4 |
| 20260505012805 | 72 | 215 | 0.0 | 4.3 | 0.00 | 0.00 | 0.00 | 65 | 1005.4 |
| 20260505012300 | 72 | 141 | 0.0 | 0.0 | 0.00 | 0.00 | 0.00 | 65 | 1005.3 |
| 20260505011818 | 72 | 217 | 0.0 | 3.5 | 0.00 | 0.00 | 0.00 | 65 | 1005.2 |
| 20260505011313 | 72 | 207 | 0.0 | 3.5 | 0.00 | 0.00 | 0.00 | 64 | 1005.2 |
| 20260505010808 | 73 | 223 | 0.9 | 3.5 | 0.00 | 0.00 | 0.00 | 63 | 1005.1 |
| 20260505010302 | 73 | 166 | 0.9 | 3.5 | 0.00 | 0.00 | 0.00 | 63 | 1004.9 |
| 20260505005817 | 73 | 237 | 0.9 | 4.3 | 0.00 | 0.00 | 0.00 | 62 | 1005.2 |
| 20260505005313 | 73 | 217 | 0.9 | 4.3 | 0.00 | 0.00 | 0.00 | 63 | 1005.0 |
| 20260505004827 | 73 | 230 | 1.7 | 4.3 | 0.00 | 0.00 | 0.00 | 63 | 1004.9 |
| 20260505004259 | 73 | 191 | 0.0 | 2.6 | 0.00 | 0.00 | 0.00 | 63 | 1004.8 |
| 20260505003813 | 74 | 230 | 0.9 | 2.6 | 0.00 | 0.00 | 0.00 | 62 | 1004.8 |
| 20260505003312 | 74 | 220 | 0.0 | 4.3 | 0.00 | 0.00 | 0.00 | 62 | 1004.7 |
| 20260505002807 | 74 | 225 | 0.9 | 4.3 | 0.00 | 0.00 | 0.00 | 62 | 1004.6 |
| 20260505002303 | 74 | 220 | 0.0 | 2.6 | 0.00 | 0.00 | 0.00 | 61 | 1004.7 |
| 20260505001817 | 75 | 227 | 0.0 | 2.6 | 0.00 | 0.00 | 0.00 | 61 | 1004.7 |
| 20260505001310 | 75 | 186 | 0.0 | 3.5 | 0.00 | 0.00 | 0.00 | 61 | 1004.6 |
| 20260505000805 | 75 | 210 | 0.9 | 3.5 | 0.00 | 0.00 | 0.00 | 60 | 1004.5 |
| 20260505000300 | 76 | 217 | 0.0 | 4.3 | 0.00 | 0.00 | 0.00 | 59 | 1004.5 |
| 20260504235814 | 76 | 175 | 2.6 | 7.8 | 0.00 | 0.00 | 0.00 | 57 | 1004.4 |
| 20260504235313 | 76 | 214 | 2.6 | 7.8 | 0.00 | 0.00 | 0.00 | 57 | 1004.5 |
| 20260504234808 | 76 | 209 | 0.0 | 7.0 | 0.00 | 0.00 | 0.00 | 57 | 1004.5 |
| 20260504234301 | 77 | 219 | 1.7 | 7.0 | 0.00 | 0.00 | 0.00 | 55 | 1004.5 |
| 20260504233815 | 77 | 171 | 1.7 | 7.0 | 0.00 | 0.00 | 0.00 | 55 | 1004.6 |
| 20260504233311 | 77 | 224 | 1.7 | 6.1 | 0.00 | 0.00 | 0.00 | 55 | 1004.6 |
| 20260504232806 | 78 | 235 | 4.3 | 7.0 | 0.00 | 0.00 | 0.00 | 54 | 1004.6 |
| 20260504232340 | 78 | 212 | 2.6 | 9.6 | 0.00 | 0.00 | 0.00 | 54 | 1004.6 |
| 20260504231834 | 78 | 214 | 2.6 | 9.6 | 0.00 | 0.00 | 0.00 | 54 | 1004.5 |
| 20260504231308 | 79 | 209 | 3.5 | 7.0 | 0.00 | 0.00 | 0.00 | 54 | 1004.5 |
| 20260504230806 | 79 | 207 | 1.7 | 7.0 | 0.00 | 0.00 | 0.00 | 54 | 1004.5 |
| 20260504230301 | 79 | 230 | 3.5 | 7.8 | 0.00 | 0.00 | 0.00 | 54 | 1004.4 |
| 20260504225836 | 79 | 236 | 3.5 | 7.8 | 0.00 | 0.00 | 0.00 | 53 | 1004.4 |
| 20260504225310 | 79 | 212 | 3.5 | 7.8 | 0.00 | 0.00 | 0.00 | 52 | 1004.5 |
| 20260504224805 | 80 | 221 | 1.7 | 5.2 | 0.00 | 0.00 | 0.00 | 55 | 1004.5 |
| 20260504224319 | 79 | 278 | 0.9 | 7.0 | 0.00 | 0.00 | 0.00 | 53 | 1004.5 |
| 20260504223833 | 79 | 229 | 1.7 | 7.8 | 0.00 | 0.00 | 0.00 | 52 | 1004.5 |
| 20260504223307 | 80 | 239 | 5.2 | 9.6 | 0.00 | 0.00 | 0.00 | 51 | 1004.4 |
| 20260504222802 | 80 | 223 | 2.6 | 9.6 | 0.00 | 0.00 | 0.00 | 53 | 1004.4 |
| 20260504222301 | 80 | 167 | 2.6 | 6.1 | 0.00 | 0.00 | 0.00 | 52 | 1004.4 |
| 20260504221815 | 81 | 213 | 2.6 | 9.6 | 0.00 | 0.00 | 0.00 | 55 | 1004.4 |
| 20260504221309 | 81 | 228 | 3.5 | 11.3 | 0.00 | 0.00 | 0.00 | 50 | 1004.4 |
| 20260504220803 | 81 | 186 | 5.2 | 11.3 | 0.00 | 0.00 | 0.00 | 50 | 1004.4 |
| 20260504220318 | 81 | 208 | 3.5 | 7.8 | 0.00 | 0.00 | 0.00 | 52 | 1004.5 |
| 20260504215832 | 82 | 191 | 3.5 | 7.8 | 0.00 | 0.00 | 0.00 | 51 | 1004.4 |
| 20260504215305 | 82 | 218 | 1.7 | 7.0 | 0.00 | 0.00 | 0.00 | 51 | 1004.5 |
| 20260504214800 | 82 | 221 | 1.7 | 12.2 | 0.00 | 0.00 | 0.00 | 50 | 1004.5 |
| 20260504214259 | 81 | 217 | 4.3 | 12.2 | 0.00 | 0.00 | 0.00 | 50 | 1004.6 |
| 20260504213814 | 81 | 224 | 3.5 | 7.8 | 0.00 | 0.00 | 0.00 | 52 | 1004.6 |
| 20260504213309 | 80 | 205 | 3.5 | 9.6 | 0.00 | 0.00 | 0.00 | 52 | 1004.5 |
| 20260504212804 | 80 | 208 | 2.6 | 9.6 | 0.00 | 0.00 | 0.00 | 52 | 1004.5 |
| 20260504212318 | 80 | 291 | 2.6 | 10.4 | 0.00 | 0.00 | 0.00 | 52 | 1004.6 |
| 20260504211833 | 81 | 248 | 6.1 | 13.9 | 0.00 | 0.00 | 0.00 | 52 | 1004.6 |
| 20260504211307 | 80 | 228 | 6.1 | 13.9 | 0.00 | 0.00 | 0.00 | 50 | 1004.8 |
| 20260504210801 | 81 | 217 | 3.5 | 10.4 | 0.00 | 0.00 | 0.00 | 50 | 1004.7 |
| 20260504210300 | 81 | 197 | 5.2 | 10.4 | 0.00 | 0.00 | 0.00 | 50 | 1004.7 |
| 20260504205835 | 82 | 245 | 4.3 | 11.3 | 0.00 | 0.00 | 0.00 | 51 | 1004.9 |
| 20260504205308 | 81 | 219 | 4.3 | 11.3 | 0.00 | 0.00 | 0.00 | 50 | 1005.0 |
| 20260504204802 | 82 | 216 | 4.3 | 10.4 | 0.00 | 0.00 | 0.00 | 51 | 1005.0 |
| 20260504204316 | 81 | 197 | 6.1 | 10.4 | 0.00 | 0.00 | 0.00 | 51 | 1005.0 |
| 20260504203810 | 81 | 221 | 4.3 | 11.3 | 0.00 | 0.00 | 0.00 | 51 | 1005.2 |
| 20260504203305 | 81 | 205 | 7.8 | 11.3 | 0.00 | 0.00 | 0.00 | 49 | 1005.2 |
| 20260504202820 | 81 | 229 | 4.3 | 9.6 | 0.00 | 0.00 | 0.00 | 50 | 1005.3 |
| 20260504202314 | 81 | 188 | 5.2 | 11.3 | 0.00 | 0.00 | 0.00 | 50 | 1005.3 |
| 20260504201810 | 81 | 219 | 4.3 | 12.2 | 0.00 | 0.00 | 0.00 | 50 | 1005.3 |
| 20260504201329 | 81 | 202 | 4.3 | 12.2 | 0.00 | 0.00 | 0.00 | 50 | 1005.3 |
| 20260504200803 | 81 | 184 | 3.5 | 12.2 | 0.00 | 0.00 | 0.00 | 53 | 1005.4 |
| 20260504200318 | 81 | 217 | 2.6 | 12.2 | 0.00 | 0.00 | 0.00 | 52 | 1005.5 |
| 20260504195812 | 81 | 219 | 4.3 | 10.4 | 0.00 | 0.00 | 0.00 | 50 | 1005.6 |
| 20260504195328 | 81 | 215 | 3.5 | 10.4 | 0.00 | 0.00 | 0.00 | 52 | 1005.5 |
| 20260504194801 | 80 | 209 | 3.5 | 13.0 | 0.00 | 0.00 | 0.00 | 52 | 1005.6 |
| 20260504194317 | 80 | 225 | 5.2 | 10.4 | 0.00 | 0.00 | 0.00 | 49 | 1005.8 |
| 20260504193811 | 81 | 226 | 5.2 | 10.4 | 0.00 | 0.00 | 0.00 | 51 | 1005.8 |
| 20260504193306 | 81 | 214 | 4.3 | 10.4 | 0.00 | 0.00 | 0.00 | 52 | 1006.0 |
| 20260504192804 | 81 | 201 | 3.5 | 7.8 | 0.00 | 0.00 | 0.00 | 50 | 1006.0 |
| 20260504192259 | 81 | 236 | 1.7 | 11.3 | 0.00 | 0.00 | 0.00 | 50 | 1006.1 |
| 20260504191814 | 81 | 219 | 3.5 | 11.3 | 0.00 | 0.00 | 0.00 | 50 | 1006.1 |
| 20260504191309 | 80 | 207 | 3.5 | 11.3 | 0.00 | 0.00 | 0.00 | 50 | 1006.1 |
| 20260504190803 | 80 | 170 | 7.0 | 11.3 | 0.00 | 0.00 | 0.00 | 50 | 1006.1 |
| 20260504190317 | 80 | 120 | 7.0 | 10.4 | 0.00 | 0.00 | 0.00 | 50 | 1006.1 |
| 20260504185812 | 80 | 223 | 2.6 | 12.2 | 0.00 | 0.00 | 0.00 | 52 | 1006.1 |
| 20260504185327 | 80 | 223 | 4.3 | 9.6 | 0.00 | 0.00 | 0.00 | 51 | 1006.2 |
| 20260504184804 | 80 | 240 | 5.2 | 9.6 | 0.00 | 0.00 | 0.00 | 52 | 1006.2 |
| 20260504184319 | 80 | 179 | 2.6 | 8.7 | 0.00 | 0.00 | 0.00 | 52 | 1006.3 |
| 20260504183814 | 80 | 207 | 4.3 | 10.4 | 0.00 | 0.00 | 0.00 | 51 | 1006.2 |
| 20260504183307 | 80 | 231 | 5.2 | 10.4 | 0.00 | 0.00 | 0.00 | 53 | 1006.2 |
| 20260504182803 | 80 | 219 | 3.5 | 13.0 | 0.00 | 0.00 | 0.00 | 52 | 1006.2 |
| 20260504182315 | 80 | 227 | 5.2 | 13.0 | 0.00 | 0.00 | 0.00 | 51 | 1006.3 |
| 20260504181808 | 79 | 240 | 4.3 | 12.2 | 0.00 | 0.00 | 0.00 | 51 | 1006.3 |
| 20260504181302 | 80 | 236 | 6.1 | 12.2 | 0.00 | 0.00 | 0.00 | 50 | 1006.2 |
| 20260504180815 | 80 | 232 | 4.3 | 9.6 | 0.00 | 0.00 | 0.00 | 51 | 1006.3 |
| 20260504180314 | 80 | 240 | 4.3 | 9.6 | 0.00 | 0.00 | 0.00 | 52 | 1006.3 |
| 20260504175807 | 79 | 203 | 4.3 | 10.4 | 0.00 | 0.00 | 0.00 | 55 | 1006.3 |
| 20260504175304 | 78 | 223 | 6.1 | 12.2 | 0.00 | 0.00 | 0.00 | 51 | 1006.3 |
| 20260504174837 | 78 | 127 | 5.2 | 12.2 | 0.00 | 0.00 | 0.00 | 50 | 1006.4 |
| 20260504174310 | 78 | 198 | 6.1 | 11.3 | 0.00 | 0.00 | 0.00 | 51 | 1006.3 |
| 20260504173805 | 78 | 230 | 7.0 | 11.3 | 0.00 | 0.00 | 0.00 | 51 | 1006.2 |
| 20260504173300 | 78 | 223 | 6.1 | 12.2 | 0.00 | 0.00 | 0.00 | 54 | 1006.3 |
| 20260504172815 | 78 | 185 | 6.1 | 12.2 | 0.00 | 0.00 | 0.00 | 52 | 1006.2 |
| 20260504172309 | 78 | 209 | 5.2 | 11.3 | 0.00 | 0.00 | 0.00 | 52 | 1006.3 |
| 20260504171808 | 77 | 212 | 4.3 | 14.8 | 0.00 | 0.00 | 0.00 | 53 | 1006.3 |
| 20260504171304 | 77 | 216 | 5.2 | 15.6 | 0.00 | 0.00 | 0.00 | 52 | 1006.3 |
| 20260504170818 | 77 | 233 | 7.8 | 15.6 | 0.00 | 0.00 | 0.00 | 52 | 1006.4 |
| 20260504170332 | 77 | 203 | 5.2 | 13.9 | 0.00 | 0.00 | 0.00 | 53 | 1006.3 |
| 20260504160326 | 75 | 184 | 6.1 | 12.2 | 0.00 | 0.00 | 0.00 | 56 | 1006.9 |
| 20260504150809 | 72 | 131 | 6.1 | 12.2 | 0.00 | 0.00 | 0.00 | 56 | 1007.1 |
| 20260504150304 | 72 | 217 | 5.2 | 12.2 | 0.00 | 0.00 | 0.00 | 57 | 1007.1 |
| 20260504141314 | 70 | 231 | 5.2 | 13.0 | 0.00 | 0.00 | 0.00 | 56 | 1007.8 |
| 20260504140808 | 70 | 217 | 3.5 | 9.6 | 0.00 | 0.00 | 0.00 | 57 | 1007.9 |
| 20260504140323 | 70 | 215 | 5.2 | 10.4 | 0.00 | 0.00 | 0.00 | 57 | 1007.9 |
| 20260504130800 | 66 | 184 | 6.1 | 11.3 | 0.00 | 0.00 | 0.00 | 61 | 1008.3 |
| 20260504130300 | 66 | 141 | 5.2 | 9.6 | 0.00 | 0.00 | 0.00 | 61 | 1008.3 |
| 20260504120300 | 61 | 166 | 2.6 | 8.7 | 0.00 | 0.00 | 0.00 | 67 | 1008.4 |
| 20260504110306 | 61 | 138 | 1.7 | 7.0 | 0.00 | 0.00 | 0.00 | 65 | 1008.7 |
| 20260504100310 | 63 | 219 | 0.9 | 5.2 | 0.00 | 0.00 | 0.00 | 62 | 1009.1 |
| 20260504081823 | 64 | 159 | 2.6 | 8.7 | 0.00 | 0.00 | 0.00 | 60 | 1009.3 |
| 20260504081316 | 64 | 218 | 1.7 | 8.7 | 0.00 | 0.00 | 0.00 | 61 | 1009.4 |
| 20260504080811 | 64 | 228 | 1.7 | 6.1 | 0.00 | 0.00 | 0.00 | 61 | 1009.4 |
| 20260504080306 | 65 | 207 | 2.6 | 6.1 | 0.00 | 0.00 | 0.00 | 60 | 1009.5 |